Hourly Data Report for August 04, 2015

All times are specified in Local Standard Time (LST). Add 1 hour to adjust for Daylight Saving Time where and when it is observed.

TORONTO INTL A
ONTARIO

43°40'36.000" N
79°37'50.000" W
173.40 m
6158731
71624
YYZ

Download Data

Hourly Data (August 2015)
Hourly Data Report for August 4, 2015
Temp Definition
°C
Dew Point Temp Definition
°C
Rel Hum Definition
%
Wind Dir Definition
10's deg

Wind Spd Definition
km/h
Visibility Definition
km
Stn Press Definition
kPa
Hmdx Definition


Wind Chill Definition


Weather Definition


TIME
00:00 Legend Double Dagger 18.8 13.1 69 27 13 24.1 98.83     LegendNANA
01:00 Legend Double Dagger 18.8 13.5 71 28 15 24.1 98.85     Cloudy
02:00 Legend Double Dagger 19.1 13.6 70 31 17 24.1 98.88     LegendNANA
03:00 Legend Double Dagger 18.6 13.3 71 32 13 24.1 98.95     LegendNANA
04:00 Legend Double Dagger 18.2 12.5 69 30 13 24.1 98.95     Mostly Cloudy
05:00 Legend Double Dagger 17.9 12.2 69 32 16 24.1 98.98     LegendNANA
06:00 Legend Double Dagger 17.7 12.2 70 32 8 24.1 99.04     LegendNANA
07:00 Legend Double Dagger 19.2 12.6 65 30 13 24.1 99.10     Mainly Clear
08:00 Legend Double Dagger 20.5 13.3 63 28 8 24.1 99.10     LegendNANA
09:00 Legend Double Dagger 21.8 12.8 56 24 6 24.1 99.11     LegendNANA
10:00 Legend Double Dagger 23.1 12.9 52 25 14 24.1 99.13 26   Mostly Cloudy
11:00 Legend Double Dagger 24.1 13.2 50 25 23 24.1 99.11 27   LegendNANA
12:00 Legend Double Dagger 23.9 13.0 50 27 12 24.1 99.08 27   LegendNANA
13:00 Legend Double Dagger 25.0 12.1 44 26 29 24.1 99.07 27   Mostly Cloudy
14:00 Legend Double Dagger 25.0 13.7 49 24 21 24.1 99.04 28   LegendNANA
15:00 Legend Double Dagger 23.9 13.0 50 28 27 24.1 99.00 27   Rain Showers
16:00 Legend Double Dagger 25.8 11.8 41 27 32 24.1 99.00 28   Mostly Cloudy
17:00 Legend Double Dagger 23.1 13.4 54 1 25 24.1 99.03 26   LegendNANA
18:00 Legend Double Dagger 19.3 15.2 77 33 14 24.1 99.10     LegendNANA
19:00 Legend Double Dagger 19.9 14.6 71 27 12 24.1 99.15     Mostly Cloudy
20:00 Legend Double Dagger 19.2 14.5 74 27 11 24.1 99.18     LegendNANA
21:00 Legend Double Dagger 19.1 14.6 75 28 12 24.1 99.22     LegendNANA
22:00 Legend Double Dagger 19.0 14.1 73 31 18 24.1 99.23     Mainly Clear
23:00 Legend Double Dagger 18.2 13.6 74 30 24 24.1 99.33     LegendNANA

Notes on Data Quality.

Legend

  • E = Estimated
  • M = Missing
  • NA = Not Available
  • ‡ = Partner data that is not subject to review by the National Climate Archives
Date modified: